Location: Cruquius
(52.3348°N, 4.6319°E)
Time: 07:04:26
(UTC+00:00)

Nadezhda 1 Rocket - Pass Details

Date: 12 May 2021
Orbit: 940 x 1006 km, 83.0° (Epoch: 16 June)

Event Time Altitude Azimuth Distance (km) Brightness Sun altitude
Exits shadow 21:44:00 14° 188° (S) 2,452 5.6 -15.1°
Maximum altitude 21:49:31 90° 267° (W) 987 4.0 -15.5°
Drops below altitude 10° 21:55:47 10° 10° (N) 2,720 7.2 -15.9°
Sets 21:58:16 0° 11° (N) 3,661 7.9 -16.1°
